Regional Weather Roundup
Issued by NWS Portland, ME

Home | Current Version | Previous Version | Text Only | Print | Product List | Glossary On
Versions: 1 2 3 4 5 6 7 8 9 10 11 12 13 14 15 16 17 18 19 20 21 22 23 24 25 26 27 28 29 30 31 32 33 34 35 36 37 38 39 40 41 42 43 44 45 46 47 48 49 50
000
ASUS41 KGYX 282210
RWRGYX
WEATHER ROUNDUP FOR MAINE AND NEW HAMPSHIRE
NATIONAL WEATHER SERVICE GRAY ME
500 PM EST WED JAN 28 2015

MEZ002-005-006-010-012-015-018-020-021-024-026-027-029-282300-
MAINE

CITY           SKY/WX    TMP DP  RH WIND       PRES   REMARKS
PORTLAND       PTCLDY    25  10  53 NW10      30.02R WCI  15
SANFORD        CLEAR     21   5  49 NW10      30.02R WCI  10
BAR HARBOR     MOCLDY    18  16  93 NW9       29.97R
WISCASSET      PTCLDY    23   9  55 VRB3      30.02R
ROCKLAND       PTCLDY    21   9  58 NW7       29.99R
FRYEBURG       PTCLDY    20   7  57 NE3       30.03R
LEWISTONAUBURN PTCLDY    21   9  58 NW12      30.01R WCI   9
AUGUSTA        PTCLDY    20   9  62 N8        30.00R
WATERVILLE     PTCLDY    21  14  73 N8        29.97R
BANGOR         PTCLDY    16   7  67 NW6       29.99R
GREENVILLE       N/A     12   5  73 NW13G24   29.90R WCI  -3
MILLINOCKET    MOCLDY    18   8  65 NW7       29.97R
HOULTON        CLOUDY    14   7  73 N7        29.93R
PRESQUE ISLE   CLOUDY    16   1  53 NW13      29.95R WCI   2
FRENCHVILLE    PTCLDY    10  -2  58 NW15G24   29.93R WCI  -7
CARIBOU        CLOUDY    13   5  70 NW10      29.95R WCI   0
$$

NHZ002-005-008-009-011-012-014-282300-
NEW HAMPSHIRE

CITY           SKY/WX    TMP DP  RH WIND       PRES   REMARKS
PORTSMOUTH     PTCLDY    22   8  54 W12       30.02R WCI  10
ROCHESTER      CLEAR     22   8  55 NW6       30.02R
NASHUA         PTCLDY    23   8  52 NW10      30.06R WCI  12
MANCHESTER     PTCLDY    22   7  52 NW15      30.04R WCI   9
CONCORD        CLEAR     21   6  52 W5        30.06R
LACONIA        CLEAR     19   5  53 NW13G18   30.03R WCI   7
PLYMOUTH       FAIR      19   8  62 W16G22    30.07R WCI   4
BERLIN         CLEAR     12  -2  53 N5        30.06R
WHITEFIELD     PTCLDY    13   1  59 N6        30.09R
JAFFREY        CLEAR     20   2  45 VRB6      30.03R
KEENE          CLEAR     23   3  42 CALM      30.09R
LEBANON        CLEAR     20  -1  40 N12G18    30.11R WCI   8
MT WASHINGTON  MOCLDY     1  -9  60 N46G55      N/A  WCI -28
$$

VTZ005-007-008-282300-
VERMONT

CITY           SKY/WX    TMP DP  RH WIND       PRES   REMARKS
ST JOHNSBURY     N/A     15  -4  42 MISG      30.12R
MONTPELIER     CLEAR     11  -7  44 NW6       30.14R
BURLINGTON     CLEAR     15  -9  33 NE6       30.21R
$$

MAZ007-012-024-CTZ003-RIZ002-NYZ038-NYZ072-282300-
SOUTHERN NEW ENGLAND AND NY

CITY           SKY/WX    TMP DP  RH WIND       PRES   REMARKS
BOSTON         PTCLDY    23   9  55 NW13      30.06R WCI  11
WORCESTER      CLEAR     20   7  57 NW12      30.00R WCI   8
NANTUCKET      CLOUDY    24  15  68 N13       30.03R WCI  12
PROVIDENCE     PTCLDY    24   8  50 N5        30.05R
HARTFORD       PTCLDY    27   4  37 N14G21    30.09R WCI  16
ALBANY         CLEAR     21  -1  38 N8        30.18R
NEW YORK CITY  CLEAR     32  11  41 N9        30.13R
$$

ANZ081-ANZ082-ANZ150-NHZ014-MEZ023>029-282300-
COASTAL MARINE OBSERVATIONS

STATION/POSITION TIME  TEMP    WIND        PRES    WAVE
                       AIR SEA DIR/SP/G            HT/PER
                 (UTC) (F)     (DEG/KT/KT) (MB)    (FT/S)
MOUNT DESERT ROC 2200   21                 1013.8R
MATINICUS ROCK   2200          340/ 22/ 25 1015.2R
PORTLAND WX BUOY 2150   27 41  340/ 17/ 21 1015.7R   4/12
WELLS            2100   26 34  310/  9/ 13 1014.9R
ISLE OF SHOALS   2200   24     300/ 19/ 20 1016.0R
JEFFREYS LEDGE   2121      44                N/A     7/ 8
CASHES LEDGE BUO 2150   25     340/ 21       N/A
$$

.............KEY..............
   WCI - WIND CHILL
   TC  - TEMPERATURE IN CELSIUS
   VSB - VISIBILITY IN MILES
   HX  - HEAT INDEX
   FAIR- INDICATES FEW OR NO CLOUDS BELOW 12,000 FT, WITH NO
         SIGNIFICANT WEATHER AND/OR OBSTRUCTIONS TO VISIBILITY.




USA.gov is the U.S. government's official web portal to all federal, state and local government web resources and services.